WB5HZM-3 Weather Reports


Display with metric or nautical units.
time (UTC)temp
F
wind
direction
speed
MPH
gust
MPH
rain 1hr
in
rain 24hr
in
rain mn
in
humidity
%
barometer
mb
20260509185301 78 91 4.0 6.0 0.00 0.00 0.00 85 1010.8
20260509184255 78 91 4.0 7.0 0.00 0.00 0.00 85 1010.8
20260509183309 78 90 3.0 6.0 0.00 0.00 0.00 85 1011.2
20260509182306 77 90 6.0 8.0 0.00 0.00 0.00 85 1011.2
20260509181303 77 103 4.0 6.0 0.00 0.00 0.00 85 1011.3
20260509180259 76 90 3.0 4.0 0.00 0.00 0.00 85 1011.4
20260509175254 76 74 4.0 5.0 0.00 0.00 0.00 84 1011.5
20260509174313 76 80 5.0 6.0 0.00 0.00 0.00 84 1011.6
20260509173309 76 85 4.0 6.0 0.00 0.00 0.00 84 1011.6
20260509172306 76 46 5.0 5.0 0.00 0.00 0.00 84 1011.7
20260509171305 76 34 6.0 8.0 0.00 0.00 0.00 84 1011.6
20260509170301 76 68 5.0 6.0 0.00 0.00 0.00 84 1011.4
20260509165257 75 83 5.0 7.0 0.00 0.00 0.00 84 1011.4
20260509164313 75 63 3.0 4.0 0.00 0.00 0.00 84 1011.8
20260509163312 75 39 3.0 5.0 0.00 0.00 0.00 84 1012.1
20260509162307 75 38 3.0 4.0 0.00 0.00 0.00 84 1012.1
20260509161303 75 36 4.0 5.0 0.00 0.00 0.00 84 1012.3
20260509160303 76 34 3.0 4.0 0.00 0.00 0.00 84 1012.4
20260509155259 76 257 0.0 0.0 0.00 0.00 0.00 84 1012.3
20260509154314 76 219 0.0 0.0 0.00 0.00 0.00 84 1012.4
20260509153308 75 217 0.0 2.0 0.00 0.00 0.00 84 1012.3
20260509152308 75 207 1.0 4.0 0.00 0.00 0.00 84 1012.0
20260509151304 75 71 3.0 3.0 0.00 0.00 0.00 84 1011.9
20260509150300 75 340 2.0 4.0 0.00 0.00 0.00 84 1011.8
20260509145258 75 337 3.0 4.0 0.00 0.00 0.00 84 1011.8
20260509144254 75 336 2.0 5.0 0.00 0.00 0.00 84 1011.4
20260509143310 75 314 2.0 4.0 0.00 0.00 0.00 84 1011.2
20260509142310 75 183 2.0 4.0 0.00 0.00 0.00 84 1010.7
20260509141306 74 101 1.0 5.0 0.00 0.00 0.00 84 1010.8
20260509140302 74 163 2.0 4.0 0.00 0.00 0.00 84 1010.9
20260509135256 74 112 1.0 4.0 0.00 0.00 0.00 84 1011.0
20260509134256 74 98 2.0 4.0 0.00 0.00 0.00 84 1011.5
20260509133312 74 174 2.0 4.0 0.00 0.00 0.00 84 1011.7
20260509132307 74 150 1.0 3.0 0.00 0.00 0.00 84 1011.8
20260509131305 73 134 0.0 2.0 0.00 0.00 0.00 84 1011.7
20260509130300 73 126 0.0 0.0 0.00 0.00 0.00 84 1011.9
20260509125255 73 126 0.0 0.0 0.00 0.00 0.00 84 1012.1
20260509124255 73 126 0.0 0.0 0.00 0.00 0.00 84 1012.0
20260509123310 73 126 0.0 0.0 0.00 0.00 0.00 84 1012.0
20260509122306 73 126 0.0 0.0 0.00 0.00 0.00 84 1011.9
20260509121302 73 126 0.0 0.0 0.00 0.00 0.00 84 1011.8
20260509120302 73 126 0.0 0.0 0.00 0.00 0.00 84 1011.7
20260509115257 73 121 0.0 2.0 0.00 0.00 0.00 84 1011.6
20260509114312 73 121 1.0 4.0 0.00 0.00 0.00 84 1011.2
20260509113309 73 121 2.0 3.0 0.00 0.00 0.00 84 1011.1
20260509112307 73 121 0.0 4.0 0.00 0.00 0.00 84 1010.9
20260509111301 73 101 0.0 0.0 0.00 0.00 0.00 84 1010.5
20260509110257 73 101 0.0 0.0 0.00 0.00 0.00 84 1010.3
20260509105255 73 101 0.0 1.0 0.00 0.00 0.00 84 1010.6
20260509104311 73 101 0.0 1.0 0.00 0.00 0.00 84 1010.8
20260509103307 73 101 0.0 1.0 0.00 0.00 0.00 84 1010.9
20260509102307 73 101 1.0 1.0 0.00 0.00 0.00 84 1010.9
20260509101303 73 101 0.0 0.0 0.00 0.00 0.00 84 1011.1
20260509100259 73 101 0.0 0.0 0.00 0.00 0.00 84 1011.2
20260509095259 73 101 0.0 0.0 0.00 0.00 0.00 84 1011.0
20260509094255 73 101 0.0 3.0 0.00 0.00 0.00 84 1010.9
20260509093311 73 106 0.0 1.0 0.00 0.00 0.00 84 1011.0
20260509092307 73 106 0.0 0.0 0.00 0.00 0.00 84 1011.0
20260509091307 73 106 0.0 0.0 0.00 0.00 0.00 84 1011.0
20260509090303 73 106 0.0 0.0 0.00 0.00 0.00 84 1011.1
20260509085259 73 106 0.0 1.0 0.00 0.00 0.00 84 1011.1
20260509084257 73 106 0.0 1.0 0.00 0.00 0.00 84 1011.0
20260509083313 73 106 0.0 2.0 0.00 0.00 0.00 84 1011.0
20260509082308 73 105 0.0 2.0 0.00 0.00 0.00 84 1011.3
20260509081304 73 104 0.0 1.0 0.00 0.00 0.00 84 1011.3
20260509080304 73 104 0.0 4.0 0.00 0.00 0.00 84 1011.3
20260509075300 73 106 1.0 3.0 0.00 0.00 0.00 84 1011.2
20260509074256 73 103 2.0 4.0 0.00 0.00 0.00 84 1011.0
20260509073256 73 102 2.0 4.0 0.00 0.00 0.00 84 1010.9
20260509072312 73 140 1.0 3.0 0.00 0.00 0.00 85 1011.1
20260509071308 73 144 1.0 3.0 0.00 0.00 0.00 85 1011.3
20260509070308 72 133 2.0 3.0 0.00 0.00 0.00 85 1011.4
20260509065301 72 149 1.0 3.0 0.00 0.00 0.00 85 1011.3
20260509064256 72 149 0.0 2.0 0.00 0.00 0.00 84 1011.2
20260509063312 72 149 1.0 3.0 0.00 0.00 0.00 85 1011.4
20260509062311 72 132 1.0 4.0 0.00 0.00 0.00 85 1011.4
20260509061305 72 175 1.0 4.0 0.00 0.00 0.00 85 1011.5
20260509060300 72 161 1.0 4.0 0.00 0.00 0.00 85 1011.6
20260509055300 72 101 1.0 6.0 0.00 0.00 0.00 85 1011.6
20260509054254 72 185 1.0 4.0 0.00 0.00 0.00 85 1011.6
20260509053310 72 88 2.0 6.0 0.00 0.00 0.00 85 1011.7
20260509052307 72 121 2.0 6.0 0.00 0.00 0.00 85 1011.7
20260509051305 72 189 2.0 6.0 0.00 0.00 0.00 85 1011.8
20260509050259 72 184 1.0 8.0 0.00 0.00 0.00 85 1011.8
20260509045255 72 115 3.0 8.0 0.00 0.00 0.00 85 1011.7
20260509044255 72 105 4.0 8.0 0.00 0.00 0.00 85 1011.5
20260509043311 72 129 2.0 5.0 0.00 0.00 0.00 85 1011.6
20260509042307 72 119 4.0 8.0 0.00 0.00 0.00 85 1011.8
20260509041306 72 144 1.0 6.0 0.00 0.00 0.00 86 1011.8
20260509040302 72 150 1.0 6.0 0.00 0.00 0.00 86 1011.6
20260509035257 73 142 3.0 7.0 0.00 0.00 0.00 86 1011.4
20260509034312 73 207 2.0 7.0 0.00 0.00 0.00 86 1011.4
20260509033311 73 182 2.0 8.0 0.00 0.00 0.00 86 1011.1
20260509032307 73 159 3.0 7.0 0.00 0.00 0.00 86 1011.2
20260509031302 73 205 2.0 12.0 0.00 0.00 0.00 86 1011.2
20260509030302 73 131 3.0 8.0 0.00 0.00 0.00 86 1011.2
20260509025258 73 130 4.0 9.0 0.00 0.00 0.00 86 1010.9
20260509024254 73 128 3.0 9.0 0.00 0.00 0.00 86 1010.8
20260509023309 73 175 4.0 10.0 0.00 0.00 0.00 86 1010.8
20260509022308 74 103 3.0 11.0 0.00 0.00 0.00 86 1010.6
20260509021302 74 155 4.0 8.0 0.00 0.00 0.00 85 1010.6
20260509020259 74 175 3.0 7.0 0.00 0.00 0.00 85 1010.6
20260509015258 74 111 1.0 7.0 0.00 0.00 0.00 85 1010.4
20260509014253 74 101 2.0 9.0 0.00 0.00 0.00 85 1010.5
20260509013310 75 148 1.0 7.0 0.00 0.00 0.00 85 1010.5
20260509012309 75 131 1.0 4.0 0.00 0.00 0.00 85 1010.5
20260509011304 75 169 1.0 4.0 0.00 0.00 0.00 84 1010.4
20260509010259 75 94 2.0 7.0 0.00 0.00 0.00 84 1010.5
20260509005255 75 184 2.0 6.0 0.00 0.00 0.00 84 1010.7
20260509004255 75 141 2.0 7.0 0.00 0.00 0.00 84 1010.6
20260509003309 75 136 3.0 8.0 0.00 0.00 0.00 84 1010.4
20260509002306 75 146 4.0 8.0 0.00 0.00 0.00 83 1010.2
20260509001306 76 178 4.0 9.0 0.00 0.00 0.00 84 1010.3
20260509000303 76 118 5.0 9.0 0.00 0.00 0.00 84 1010.5
20260508235256 76 149 2.0 6.0 0.00 0.00 0.00 84 1010.8
20260508234255 76 172 2.0 7.0 0.00 0.00 0.00 84 1010.8
20260508233311 76 115 2.0 4.0 0.00 0.00 0.00 84 1010.8
20260508232307 76 135 1.0 4.0 0.00 0.00 0.00 84 1010.9
20260508231303 76 115 1.0 4.0 0.00 0.00 0.00 84 1010.8
20260508230303 76 105 3.0 6.0 0.00 0.00 0.00 84 1010.7
20260508225259 76 139 2.0 7.0 0.00 0.00 0.00 84 1010.5
20260508224254 76 103 4.0 8.0 0.00 0.00 0.00 84 1010.5
20260508223255 76 188 1.0 7.0 0.00 0.00 0.00 84 1010.7
20260508222310 76 119 4.0 8.0 0.00 0.00 0.00 84 1010.7
20260508221304 76 91 4.0 7.0 0.00 0.00 0.00 84 1010.7
20260508220301 76 119 4.0 6.0 0.00 0.00 0.00 83 1010.7
20260508215300 76 97 4.0 6.0 0.00 0.00 0.00 83 1010.7
20260508214254 76 88 3.0 6.0 0.00 0.00 0.00 83 1010.8
20260508213310 76 311 1.0 2.0 0.00 0.00 0.00 83 1010.8
20260508212310 76 311 1.0 2.0 0.00 0.00 0.00 83 1010.7
20260508211304 75 311 2.0 3.0 0.00 0.00 0.00 83 1010.9
20260508210300 75 311 1.0 3.0 0.00 0.00 0.00 83 1011.2
20260508205301 75 311 2.0 3.0 0.00 0.00 0.00 82 1011.4
20260508204257 75 310 2.0 3.0 0.00 0.00 0.00 82 1011.4
20260508203313 75 310 2.0 3.0 0.00 0.00 0.00 82 1011.5
20260508202308 75 310 2.0 4.0 0.00 0.00 0.00 83 1011.6
20260508201308 75 308 2.0 3.0 0.00 0.00 0.00 84 1011.6
20260508200304 75 305 3.0 5.0 0.00 0.00 0.00 84 1011.7
20260508195258 75 300 3.0 5.0 0.00 0.00 0.00 84 1011.7
20260508194258 74 299 3.0 4.0 0.00 0.00 0.00 84 1011.9
20260508193312 74 306 3.0 4.0 0.00 0.00 0.00 84 1011.9
20260508192308 74 301 2.0 3.0 0.00 0.00 0.00 84 1012.1
20260508191304 73 316 2.0 4.0 0.00 0.00 0.00 85 1012.1
20260508190303 73 307 2.0 4.0 0.00 0.00 0.00 85 1012.2